Regional Weather Roundup
Issued by NWS

Home | Current Version | Previous Version | Text Only | Print | Product List | Glossary On
Versions: 1 2 3 4 5 6 7 8 9 10 11 12 13 14 15 16 17 18 19 20 21 22 23 24 25 26 27 28 29 30 31 32 33 34 35 36 37 38 39 40 41 42 43 44 45 46 47 48 49 50
000
ASUS43 KOAX 262210
RWRNE

WEATHER ROUNDUP FOR NEBRASKA
NATIONAL WEATHER SERVICE OMAHA NE
400 PM CST MON JAN 26 2015

NOTES: SATELLITE DATA IS BEING USED TO AUGMENT CLOUD COVER ABOVE
       12000 FEET.
       "FAIR" INDICATES FEW OR NO CLOUDS BELOW 12,000 FEET WITH NO
       SIGNIFICANT WEATHER AND/OR OBSTRUCTIONS TO VISIBILITY.

  * THESE STATIONS DO NOT REPORT WEATHER SUCH AS RAIN...SNOW OR FOG.

NEZ001>004-019>022-054>056-262300-
NEBRASKA PANHANDLE

CITY           SKY/WX    TMP DP  RH WIND       PRES   REMARKS
SCOTTSBLUFF    SUNNY     65  37  35 W9        30.11F
ALLIANCE       SUNNY     64  36  35 NW9       30.09S
CHADRON        SUNNY     64  34  32 W14       30.06S
KIMBALL        SUNNY     67  24  19 NW13G22   30.14F
SIDNEY         SUNNY     67  30  25 N13       30.14S
$$

NEZ057>060-069>072-079>082-262300-
SOUTHWEST NEBRASKA

CITY           SKY/WX    TMP DP  RH WIND       PRES   REMARKS
NORTH PLATTE   SUNNY     67  29  24 NW17G30   30.05S
IMPERIAL       SUNNY     67  29  24 NW17      30.10R
LEXINGTON      SUNNY     68  31  25 N21       30.03S
MCCOOK         SUNNY     71  29  21 NW20G29   30.06R
OGALLALA       SUNNY     67  32  28 NW9       30.09S
$$

NEZ005>010-023>029-035>040-094-262300-
NORTH CENTRAL NEBRASKA

CITY           SKY/WX    TMP DP  RH WIND       PRES   REMARKS
VALENTINE      SUNNY     62  33  33 NW13      30.02R
BROKEN BOW     SUNNY     65  34  31 NW21G28   30.02R
O`NEILL        SUNNY     58  33  39 NW8       30.00R
ORD            SUNNY     61  33  35 N15       29.99R
THEDFORD       SUNNY     65  33  30 NW16G22   30.04S
$$

NEZ041-046>049-061>064-073>077-083>087-262300-
SOUTH CENTRAL NEBRASKA

CITY           SKY/WX    TMP DP  RH WIND       PRES   REMARKS
GRAND ISLAND   SUNNY     62  34  35 N15       30.00R
AURORA         SUNNY     63  33  32 NW13G21   29.99S
HASTINGS       SUNNY     64  31  28 N18       30.00S
HEBRON         SUNNY     65  24  21 N15       29.99R
HOLDREGE       SUNNY     67  29  24 NW17G25   30.02R
KEARNEY *      SUNNY     66  32  28 NW17G23   30.01R
YORK           SUNNY     63  32  31 NW14G20   29.98R
$$

NEZ011>018-030>034-042>045-262300-
NORTHEAST NEBRASKA

CITY           SKY/WX    TMP DP  RH WIND       PRES   REMARKS
NORFOLK        SUNNY     58  32  37 NW14      29.97R
ALBION         SUNNY     59  28  30 NW16      29.98S
BLAIR          SUNNY     57  34  41 NW18      29.94R
COLUMBUS *     SUNNY     59  32  36 NW15      30.00R
FREMONT        SUNNY     58  33  38 NW16G23   29.97R
TEKAMAH        SUNNY     57  37  47 NW21      29.95R
WAYNE          SUNNY     55  36  48 NW15G22   29.97R
$$

NEZ050>053-065>068-078-088>093-262300-
SOUTHEAST NEBRASKA

CITY           SKY/WX    TMP DP  RH WIND       PRES   REMARKS
LINCOLN        SUNNY     61  31  32 NW16      29.97R
OMAHA EPPLEY   MOSUNNY   57  35  43 NW17      29.94R
BEATRICE       SUNNY     62  30  30 NW16      29.97R
FALLS CITY     SUNNY     62  31  31 NW13G25   29.93R
NEBRASKA CITY  SUNNY     58  26  28 N16       29.95R
PLATTSMOUTH    SUNNY     57  31  36 NW15      29.94R
$$

NEZ044-045-051>053-067-262300-
OMAHA AREA

CITY           SKY/WX    TMP DP  RH WIND       PRES   REMARKS
OMAHA EPPLEY   MOSUNNY   57  35  43 NW17      29.94R
BLAIR          SUNNY     57  34  41 NW18      29.94R
FREMONT        SUNNY     58  33  38 NW16G23   29.97R
MILLARD        SUNNY     58  34  40 NW12G23   29.95R
OFFUTT AFB     SUNNY     58  35  42 NW15      29.94R
PLATTSMOUTH    SUNNY     57  31  36 NW15      29.94R
WAHOO          FAIR      59  29  31 NW15      29.96R
$$


USA.gov is the U.S. government's official web portal to all federal, state and local government web resources and services.